Location: El Abasto
(10.3790°N, 67.5897°W)
Time: 07:38:52
(UTC+00:00)

Daily predictions for brighter satellites

Satellite Brightness Start Highest point End
(mag) Time Altitude Azimuth Time Altitude Azimuth Time Altitude Azimuth
ATLAS 2AS CENTAUR RB 4.2 20:32:29 10° WSW 20:37:48 79° SSE 21:22:15 10° E
ATLAS 2AS CENTAUR RB 4.2 20:32:29 10° WSW 20:37:49 79° SSE 21:22:15 10° E
Ariane H10+ 2.6 22:58:26 10° WSW 23:01:03 60° S 23:07:22 10° E
Cosmos 1844 3.8 22:58:29 10° N 23:04:12 66° ENE 23:09:50 10° SSE
Helios 1B rocket 3.1 23:00:40 10° S 23:04:30 55° WSW 23:08:20 10° NNW
Cosmos 1238 Rocket 4.4 23:00:50 10° SE 23:04:30 24° E 23:08:36 10° NE
CZ-2C R/B 4.4 23:03:14 10° SSW 23:06:38 34° W 23:10:01 10° NW
Centaur D AC-29 1.6 23:03:22 10° WSW 23:07:43 61° NNW 23:11:37 10° ENE
Okean 1-7 Rocket 3.7 23:03:53 10° N 23:08:13 53° E 23:12:30 10° SSE
Cosmos 1812 3.8 23:06:19 10° SE 23:09:06 21° E 23:11:53 10° NE
Centaur D-1AR AC-37 4.1 23:05:18 10° WNW 23:09:13 89° NNE 23:13:47 10° ESE
SL-08 R/B 3.8 23:04:41 10° N 23:09:34 71° WNW 23:14:23 10° SSW
Cosmos 2237 Rocket 2.3 23:04:14 10° S 23:09:47 60° ESE 23:15:22 10° NNE
Helios 1A 4.3 23:07:24 10° N 23:11:17 45° WNW 23:15:11 10° SSW
Cosmos 2100 Rocket 4.0 23:06:02 10° N 23:12:07 66° E 23:18:11 10° SSE
Cosmos 1626 Rocket 4.1 23:09:16 10° NNW 23:13:35 64° W 23:17:54 10° S
Timation 2 Rocket 4.1 23:09:53 10° N 23:15:40 49° ENE 23:21:22 10° SE
Cosmos 1844 Rocket 2.9 23:11:11 10° NNW 23:16:43 75° WSW 23:22:16 10° S
SL-8 R/B 3.7 23:12:08 10° SSW 23:16:46 56° SE 23:21:23 10° NE
IGS 5A 3.5 23:13:40 10° S 23:17:44 84° WSW 23:21:48 10° NNW
Cosmos 1980 3.7 23:12:18 10° SSW 23:17:56 80° ESE 23:23:34 10° NNE
Milstar 3 3.1 23:13:38 10° WNW 23:20:18 81° SSW 23:29:15 12° ESE
GPS 2-15 Rocket1 4.1 23:20:30 10° W 23:24:57 37° SSW 23:28:58 12° SE
Cosmos 2173 Rocket 4.0 23:21:34 10° N 23:27:41 89° E 23:33:46 10° S
Ariane 3 Deb 3.4 23:25:41 10° WSW 23:29:51 30° S 23:31:46 16° SE
Cosmos 1666 3.5 23:28:31 10° NNE 23:31:25 25° E 23:33:06 17° SE
Cosmos 2150 Rocket 4.4 23:26:37 10° N 23:31:44 45° ENE 23:36:45 11° SSE
YAOGAN 3 4.5 23:30:43 10° SSE 23:35:00 81° ENE 23:39:17 10° N
Cosmos 1725 Rocket 4.1 23:29:49 10° N 23:35:59 57° E 23:42:10 10° SSE
ADEOS Rocket 3.2 23:33:28 10° S 23:39:05 70° WSW 23:45:13 10° NNW
Cosmos 1862 3.1 23:36:32 10° N 23:40:19 90° ENE 23:44:07 10° S
CZ-4B R/B 3.2 23:35:39 10° SSE 23:40:23 84° ENE 23:45:08 10° N
Cosmos 1802 Rocket 4.0 23:34:11 10° N 23:40:35 81° E 23:46:55 10° S
Intelsat 5-3 Rocket 1.9 23:39:09 10° WNW 23:41:50 83° NNE 23:44:33 22° ESE
GEOS 3 Rocket 4.3 23:37:36 10° ENE 23:41:58 29° ESE 23:46:18 10° S
Resurs 1-3 4.4 23:40:20 20° SE 23:42:35 31° ENE 23:46:24 10° NNE
Landsat 7 3.7 23:38:06 10° SSE 23:42:47 76° ENE 23:47:28 10° N
YAOGAN 1 2.7 23:40:44 10° S 23:45:01 76° W 23:49:17 10° NNW
Cosmos 1867 3.6 23:40:36 10° NNW 23:46:02 84° WSW 23:51:01 12° SSE
OAO 1 4.4 23:41:21 10° SW 23:46:51 81° SE 23:52:19 10° ENE
Cosmos 2058 Rocket 3.1 23:43:11 10° S 23:47:32 84° W 23:51:55 10° N
Cosmos 1500 2.7 23:45:17 10° N 23:48:42 82° E 23:51:24 15° S
Cosmos 1953 Rocket 4.2 23:46:30 10° NNE 23:50:31 35° E 23:52:01 27° SE
CZ-4B R/B 4.3 23:52:50 23° E 23:53:57 24° ENE 23:58:12 10° NNE
